STARLINK-32132, 60334

Orbit data source: Space-Track

STARLINK-32132, 60334 is a payload satellite owned by SpaceX/Seattle (US) in LEO that was launched on Fri, 02 Aug 2024 UTC via an FALCON 9 launch vehicle from the Air Force Eastern Test Range (AFETR). Payload-class satellites include a variety of spacecraft equipped with specific instruments for various scientific and technological missions. These include communications satellites like Starlink; space stations such as the ISS; scientific satellites like the Hubble; Earth observation satellites from companies like Planet Labs, Umbra, and HawkEye 360; GPS; miniature CubeSats for education and research; and military/defense satellites.

Loading next visibility...
Identifier
60334, 2024-136F
Orbit
LEO
Last TLE update
18 hours ago
Origin
Manufacturer
SpaceX/Seattle
Mission
Operational Commercial Communications
Bus & Motor
STARLINK V2M, Unknown motor
Mass
730 kg wet, ~700 kg dry
Launch date (UTC)
2024-08-02 (9 months ago)
Launch vehicle
FALCON 9
Launch site
Air Force Eastern Test Range (AFETR)
Object type
Payload
Rocket body
Debris
Shape & HBR
Box + 2 Pan, 29 m
Radar Cross Section
33.884 m², Large (>1 m²)

Expand to show TLE details & history

TLE from 18 hours ago
0 STARLINK-32132
1 60334U 24136F   25128.48323258  .00000510  00000-0  29338-4 0  9990
2 60334  53.1620  53.4935 0001096  78.4002 281.7122 15.30193071 43999
Epoch: 2025-05-08T11:35Z
Definitive object data (Epoch: 2025-05-08T11:35:51.294Z)
Latitude
-0.00003°
Longitude
12.97667°
Altitude
475.983 km
Speed
7.629 km/s
True Right ascension
03h 33m 58s
True Declination
0° 00' 00"
Sunlit
Object was in daylight at TLE epoch
Visualization TLE readout
Latitude
-52.38165°
Longitude
-95.39529°
Altitude
494.169 km
Speed
7.617 km/s
Apparent Right ascension
23h 30m 25s
Apparent Declination
-55° 02' 38"
Sunlit
Object is in daylight
Visualization observer readout
Local Sidereal Time
14:07:20
Azimuth
133.498° SE
Elevation
-60.032°
Doppler factor
1
Orbital elements
Apogee altitude
476.243 km
Perigee altitude
474.741 km
Semi-major axis
6,853.629 km
Eccentricity
0.0001096
Inclination
53.162°
RAAN
53.4935°
Arg. of periapsis
78.4002°
True anomaly
281.6999°
Mean anomaly
281.7122°
Eccentric anomaly
281.70605°
Mean motion
3.82527 °/min
BSTAR
0.000029338
Orbital period
94.11 mins
Loading maneuver chart data...
Loading SW <> Apogee altitude chart data...
Loading historical data...
Loading historical data...
Loading historical data...
Loading historical data...
Loading historical data...
Loading historical data...
Loading historical data...

STARLINK-32132 Visibility forecast

Observer location: undefined°, undefined°

Span
Click to sort rows by Start time (UTC) header in descending order
Start Az.
Max El. time (UTC)
Max El. Az.
Max El.
End time (UTC)
End Az.
5 mins2025-05-09 20:40:35.415Z187.426° SSW2025-05-09 20:43:35.415Z115.89° SE25.629°2025-05-09 20:45:35.415Z76.33° E
4 mins2025-05-09 22:19:35.415Z285.664° WNW2025-05-09 22:20:35.415Z314.634° NW28.697°2025-05-09 22:23:35.415Z29.496° NE
4 mins2025-05-10 03:16:35.415Z352.615° N2025-05-10 03:17:35.415Z20.396° NNE26.481°2025-05-10 03:20:35.415Z88.941° E
5 mins2025-05-10 04:53:35.415Z284.244° WNW2025-05-10 04:55:35.415Z235.781° WSW29.779°2025-05-10 04:58:35.415Z164.379° S
|